Location: Borovka
(49.7741°N, 14.5280°E)
Time: 20:54:34
(UTC+00:00)

AO-73 - Visible Passes

Search period start: 16 March 2026 00:00
Search period end: 26 March 2026 00:00
Orbit: 516 x 568 km, 97.8° (Epoch: 15 March)

Date Brightness Start Highest point End Pass type
(mag) Time Alt. Az. Time Alt. Az. Time Alt. Az.
16 Mar ? 02:22:53 10° NNE 02:26:24 35° E 02:26:29 35° E visible
16 Mar ? 03:57:47 10° NNW 04:00:48 23° WNW 04:02:03 19° W visible
17 Mar ? 02:16:17 10° NNE 02:19:40 29° E 02:19:52 29° ESE visible
17 Mar ? 03:50:56 10° N 03:54:08 26° WNW 03:55:25 22° W visible
18 Mar ? 02:09:41 10° NE 02:12:53 25° E 02:13:14 25° ESE visible
18 Mar ? 03:44:06 10° N 03:47:28 30° WNW 03:48:47 24° WSW visible
19 Mar ? 02:03:07 10° NE 02:06:06 21° E 02:06:35 21° ESE visible
19 Mar ? 03:37:17 10° N 03:40:46 35° WNW 03:42:08 26° WSW visible
20 Mar ? 01:56:35 10° NE 01:59:17 18° E 01:59:55 18° ESE visible
20 Mar ? 03:30:27 10° N 03:34:03 41° WNW 03:35:29 28° WSW visible
21 Mar ? 01:50:06 10° NE 01:52:27 16° E 01:53:15 15° ESE visible
21 Mar ? 03:23:38 10° N 03:27:18 49° WNW 03:28:48 30° SW visible
22 Mar ? 01:43:42 10° ENE 01:45:36 13° E 01:46:33 12° ESE visible
22 Mar ? 03:16:49 10° N 03:20:33 59° WNW 03:22:07 31° SW visible
23 Mar ? 01:37:30 10° ENE 01:38:43 11° E 01:39:51 10° ESE visible
23 Mar ? 03:10:00 10° N 03:13:46 71° WNW 03:15:25 32° SSW visible
24 Mar ? 03:03:10 10° NNE 03:06:58 84° WNW 03:08:42 31° SSW visible
25 Mar ? 02:56:21 10° NNE 03:00:08 81° ESE 03:01:58 29° S visible
